Location: Newark
(33.7763°N, 130.5393°E)
Time: 21:57:39
(UTC+00:00)

OTV 5 (USA 277) - Visible Passes

Search period start: 24 August 2019 00:00
Search period end: 03 September 2019 00:00
Orbit: 305 x 329 km, 54.5° (Epoch: 20 August)

Date Brightness Start Highest point End Pass type
(mag) Time Alt. Az. Time Alt. Az. Time Alt. Az.
24 Aug ? 10:20:08 10° S 10:22:32 29° SE 10:24:56 10° ENE visible
24 Aug ? 11:55:34 10° WNW 11:56:55 13° NW 11:58:15 10° N visible
25 Aug ? 10:34:20 10° SW 10:37:01 67° NW 10:39:42 10° NE visible
26 Aug ? 10:49:31 10° W 10:51:39 20° NW 10:53:45 10° N visible
